EW9037 Weather Reports


time (UTC)temp
F
wind
direction
speed
knots
gust
knots
rain 1hr
in
rain 24hr
in
rain mn
in
humidity
%
barometer
mb
20260905204518 95 321 0.9 4.3 0.00 0.00 0.00 52 1012.0
20260905203016 95 235 1.7 4.3 0.00 0.00 0.00 54 1012.2
20260905201521 95 38 1.7 5.2 0.00 0.00 0.00 53 1012.4
20260905200009 95 197 1.7 5.2 0.00 0.00 0.00 54 1012.6
20260905194531 95 161 0.9 7.0 0.00 0.00 0.00 54 1012.7
20260905193027 94 227 2.6 7.0 0.00 0.00 0.00 56 1013.1
20260905191527 94 260 0.9 6.1 0.00 0.00 0.00 55 1013.3
20260905190021 92 56 0.9 4.3 0.00 0.00 0.00 57 1013.3
20260905184520 93 297 1.7 5.2 0.00 0.00 0.00 58 1013.6
20260905183014 91 182 0.0 5.2 0.00 0.00 0.00 58 1013.9
20260905181511 91 63 0.9 5.2 0.00 0.00 0.00 58 1014.0
20260905180031 92 237 2.6 5.2 0.00 0.00 0.00 60 1014.0
20260905174535 91 168 0.9 4.3 0.00 0.00 0.00 58 1014.3
20260905173037 89 190 4.3 7.8 0.00 0.00 0.00 61 1014.4
20260905171524 89 179 2.6 6.1 0.00 0.00 0.00 59 1014.4
20260905170034 88 151 0.9 7.0 0.00 0.00 0.00 63 1014.6
20260905164534 88 190 1.7 5.2 0.00 0.00 0.00 63 1014.9
20260905163034 88 171 3.5 6.1 0.00 0.00 0.00 62 1015.1
20260905161534 87 98 2.6 5.2 0.00 0.00 0.00 66 1015.3
20260905160034 86 33 0.9 7.0 0.00 0.00 0.00 1015.2
20260905154527 85 42 2.6 5.2 0.00 0.00 0.00 69 1015.3
20260905153026 84 94 1.7 8.7 0.00 0.00 0.00 70 1015.3
20260905151533 84 80 1.7 7.8 0.00 0.00 0.00 70 1015.6
20260905150037 83 53 3.5 7.8 0.00 0.00 0.00 72 1015.6
20260905144540 83 51 2.6 7.8 0.00 0.00 0.00 75 1015.8
20260905143012 81 110 4.3 7.8 0.00 0.00 0.00 76 1015.6
20260905141508 81 114 4.3 8.7 0.00 0.00 0.00 78 1015.7
20260905140004 81 55 3.5 8.7 0.00 0.00 0.00 81 1015.7
20260905134503 79 99 2.6 5.2 0.00 0.00 0.00 88 1015.8
20260905133024 77 38 3.5 7.0 0.00 0.00 0.00 90 1015.7
20260905131539 77 106 0.0 0.0 0.00 0.00 0.00 94 1015.2
20260905130016 75 151 0.0 0.9 0.00 0.00 0.00 95 1015.2
20260905124524 75 104 1.7 5.2 0.00 0.00 0.00 95 1015.4
20260905123010 75 66 0.0 0.0 0.00 0.00 0.00 96 1015.4
20260905121507 74 157 0.0 0.0 0.00 0.00 0.00 97 1015.1
20260905120006 74 157 0.0 0.0 0.00 0.00 0.00 97 1015.0
20260905114537 73 157 0.0 0.0 0.00 0.00 0.00 97 1015.0
20260905113026 71 157 0.0 0.0 0.00 0.00 0.00 97 1014.6
20260905111518 72 157 0.0 0.0 0.00 0.00 0.00 97 1014.2
20260905110013 72 157 0.0 0.0 0.00 0.00 0.00 97 1014.0
20260905104513 71 157 0.0 0.0 0.00 0.00 0.00 96 1013.9
20260905103023 73 157 0.0 0.0 0.00 0.00 0.00 97 1013.9
20260905101503 72 157 0.0 0.0 0.00 0.00 0.00 96 1014.0
20260905100029 72 157 0.0 0.0 0.00 0.00 0.00 96 1014.0
20260905094527 73 157 0.0 0.0 0.00 0.00 0.00 96 1013.8
20260905093020 74 157 0.0 0.0 0.00 0.00 0.00 97 1013.7
20260905091519 73 182 0.0 0.0 0.00 0.00 0.00 96 1013.6
20260905090012 72 237 0.0 0.0 0.00 0.00 0.00 95 1013.4
20260905084532 73 237 0.0 0.0 0.00 0.00 0.00 96 1013.5
20260905083032 73 237 0.0 0.0 0.00 0.00 0.00 96 1013.4
20260905081528 72 237 0.0 0.0 0.00 0.00 0.00 96 1013.6
20260905080027 73 237 0.0 0.0 0.00 0.00 0.00 96 1013.3
20260905074528 74 237 0.0 0.0 0.00 0.00 0.00 96 1013.4
20260905073019 74 237 0.0 0.0 0.00 0.00 0.00 96 1013.6
20260905071517 73 221 0.0 0.0 0.00 0.00 0.00 96 1013.9
20260905070011 74 221 0.0 0.0 0.00 0.00 0.00 95 1013.8
20260905064532 75 221 0.0 0.0 0.00 0.00 0.00 96 1013.9
20260905063032 75 221 0.0 0.0 0.00 0.00 0.00 96 1014.0
20260905061530 74 221 0.0 0.0 0.00 0.00 0.00 95 1014.2
20260905060028 75 221 0.0 0.0 0.00 0.00 0.00 96 1014.3
20260905054520 74 221 0.0 0.0 0.00 0.00 0.00 95 1014.3
20260905053019 74 221 0.0 0.0 0.00 0.00 0.00 94 1014.5
20260905051526 75 221 0.0 0.0 0.00 0.00 0.00 95 1014.5
20260905050008 75 221 0.0 0.0 0.00 0.00 0.00 95 1014.6
20260905044511 75 221 0.0 0.0 0.00 0.00 0.00 95 1014.6
20260905043030 75 221 0.0 0.0 0.00 0.00 0.00 95 1014.4
20260905041526 75 221 0.0 0.0 0.00 0.00 0.00 93 1014.5
20260905040026 76 221 0.0 0.0 0.00 0.00 0.00 94 1014.6
20260905034527 76 221 0.0 0.0 0.00 0.00 0.00 94 1014.6
20260905033021 76 260 0.0 0.0 0.00 0.00 0.00 94 1014.6
20260905031523 76 260 0.0 0.0 0.00 0.00 0.00 92 1014.6
20260905030022 77 260 0.0 0.0 0.00 0.00 0.00 93 1014.7
20260905024534 77 260 0.0 0.0 0.00 0.00 0.00 92 1014.7
20260905023032 78 260 0.0 0.0 0.00 0.00 0.00 92 1014.5
20260905021524 78 260 0.0 0.0 0.00 0.00 0.00 91 1014.6
20260905020020 79 260 0.0 0.0 0.00 0.00 0.00 90 1014.6
20260905014517 78 260 0.0 0.0 0.00 0.00 0.00 88 1014.6
20260905013010 79 260 0.0 0.0 0.00 0.00 0.00 88 1014.5
20260905011509 80 260 0.0 0.0 0.00 0.00 0.00 88 1014.3
20260905010029 80 260 0.0 0.0 0.00 0.00 0.00 85 1014.3
20260905004531 82 260 0.0 0.0 0.00 0.00 0.00 83 1014.0
20260905003027 82 260 0.0 0.0 0.00 0.00 0.00 82 1014.1
20260905001522 83 260 0.0 0.0 0.00 0.00 0.00 81 1014.0
20260905000019 83 260 0.0 0.0 0.00 0.00 0.00 79 1013.9
20260904234517 88 5 0.0 0.0 0.00 0.00 0.00 70 1014.1
20260904233014 90 5 0.0 0.0 0.00 0.00 0.00 67 1014.1
20260904231535 92 5 0.0 0.0 0.00 0.00 0.00 61 1014.1
20260904230034 93 5 0.0 0.0 0.00 0.00 0.00 55 1014.1
20260904224540 93 5 0.0 0.0 0.00 0.00 0.00 56 1014.1
20260904223024 94 345 0.0 1.7 0.00 0.00 0.00 55 1014.1
20260904221523 94 5 0.0 3.5 0.00 0.00 0.00 56 1014.2
20260904220016 95 281 0.9 3.5 0.00 0.00 0.00 55 1014.2
20260904214541 95 30 1.7 3.5 0.00 0.00 0.00 52 1014.1
20260904213033 95 60 0.9 4.3 0.00 0.00 0.00 51 1014.0
20260904211532 95 26 0.0 4.3 0.00 0.00 0.00 53 1014.1
20260904210031 95 13 1.7 4.3 0.00 0.00 0.00 53 1014.2